Regional Weather Roundup
Issued by NWS

Home | Current Version | Previous Version | Text Only | Print | Product List | Glossary On
Versions: 1 2 3 4 5 6 7 8 9 10 11 12 13 14 15 16 17 18 19 20 21 22 23 24 25 26 27
000
ASUS46 KPQR 040210
RWROR

OREGON REGIONAL WEATHER ROUNDUP
NATIONAL WEATHER SERVICE PORTLAND OR
700 PM PDT TUE MAY 03 2016

NOTE: "FAIR" INDICATES FEW OR NO CLOUDS BELOW 12,000 FEET WITH
NO SIGNIFICANT WEATHER AND/OR OBSTRUCTIONS TO VISIBILITY.

ORZ001>013-040300-
NORTHWEST OREGON


CITY           SKY/WX    TMP DP  RH WIND       PRES   REMARKS
ASTORIA        CLOUDY    57  50  77 NW12      30.10R
NEWPORT        DRIZZLE   55  54  94 N9G16     30.13S
PORTLAND       CLOUDY    67  53  61 N8        30.01S
VANCOUVER WA   CLOUDY    67  53  61 NW8       30.01R
SCAPPOOSE      CLOUDY    65  51  60 NW8       30.01R
HILLSBORO      CLOUDY    65  52  62 NW15      30.02R
AURORA         CLOUDY    65  53  65 SW5       30.02S
MCMINNVILLE    CLOUDY    63  52  67 SW9       30.02S
SALEM          CLOUDY    64  49  57 W12       30.02S
CORVALLIS        N/A     61  48  63 W13       30.07R
EUGENE         CLOUDY    63  53  70 SW9       30.06R
$$

ORZ021-028-040300-
SOUTHWEST OREGON


CITY           SKY/WX    TMP DP  RH WIND       PRES   REMARKS
NORTH BEND     CLOUDY    57  54  88 N12       30.10R
BROOKINGS      CLOUDY    57  52  83 S7        30.03R
ROSEBURG       LGT RAIN  60  56  86 W5        30.04S
SEXTON SUMMIT  LGT RAIN  53  43  68 SW8       30.07R
MEDFORD        CLOUDY    66  50  56 SW7       30.03R
$$

ORZ014>016-041-040300-
COLUMBIA GORGE


CITY           SKY/WX    TMP DP  RH WIND       PRES   REMARKS
TROUTDALE      CLOUDY    69  51  52 VRB3      30.01R
THE DALLES     CLOUDY    71  47  42 NW14      29.93R
$$

ORZ029>031-041-044-049-050-061>064-502-503-505>511-040300-
EASTERN OREGON


CITY           SKY/WX    TMP DP  RH WIND       PRES   REMARKS
REDMOND        LGT RAIN  59  50  72 NE15      30.01F
BEND           CLOUDY    57  46  67 NW5       30.03F
PRINEVILLE     LGT RAIN  57  50  77 CALM      30.07R
KLAMATH FALLS  CLOUDY    60  45  57 SE5       30.04S
LAKEVIEW       CLOUDY    57  41  54 W14       30.10S
HERMISTON      MOSUNNY   86  42  21 NW7       29.82F
PENDLETON      MOSUNNY   82  36  19 E13       29.84F
JOHN DAY       PTCLDY    73  28  18 CALM      29.99S
MEACHAM        PTCLDY    70  34  26 MISG      30.00F
LA GRANDE      CLEAR     73  36  25 S13       29.96F
BAKER CITY     CLEAR     71  33  24 SE14      30.02F
BURNS          MOCLDY    69  27  20 CALM      30.02F
ROME             N/A     74  27  17 SE9       30.01F
ONTARIO        CLEAR     80  33  18 VRB3      29.98F
$$




USA.gov is the U.S. government's official web portal to all federal, state and local government web resources and services.